Terminal Aerodrome Forecast
Issued by NWS Miami, FL

Home | Current Version | Previous Version | Text Only | Print | Product List | Glossary On
Versions: 1 2 3 4 5 6 7 8 9 10 11 12 13 14 15 16 17 18 19 20 21 22 23 24 25 26
000
FTUS42 KMFL 231507 AAA
TAFAPF
TAF AMD
KAPF 231507Z 2315/2412 14010KT P6SM SCT030
     FM231800 19010KT P6SM VCSH SCT030 BKN050
     FM232200 11007KT P6SM VCSH SCT040 SCT250
     FM240300 08005KT P6SM FEW035 SCT250=

USA.gov is the U.S. government's official web portal to all federal, state and local government web resources and services.